Retour au catalogue

STARLINK-33872

ActifCommunicationsVLEO
NORAD 64189·PAYLOAD·🇺🇸 United States

Lancé May 28, 2025 depuis Cape Canaveral Space Force Station

Loading…

Prochains Passages (prochaines 24 heures)

TLE

FraisSource: CelesTrak SupGP

Époque: Sep 15, 2026, 02:16 UTC

1 64189C 25113V   26258.09493056  .00015016  00000+0  44359-3 0  2587
2 64189  53.1588 286.8205 0001323  87.0876  66.8960 15.34388288    12

Suivez STARLINK-33872 en temps réel avec AllMySat

Download on the App Store